Date String (YYYY-MM-DD hh:mm:ss) UTC,Instrument flags,Ambient pressure (hPa),Sample flow (lpm),Bypass flow (lpm),Sample temperature (°C),Ambient temperature (°C),ASC tube jacket temperature (°C),LED temperature (°C),Box temperature (°C),Sample RH (%),Span deviation,Mass concentration (μg/m³),Mass concentration (μg/m³),Mass concentration (μg/m³)
DateTimeUTC,F1_M11,P_M11,Q1_M11,Q2_M11,T1_M11,T2_M11,T3_M11,T4_M11,T5_M11,U1_M11,ZSPAN_M11,X0_M11,X2_M11,X1_M11
2022-07-24 04:00:00,,0831.6,5.01,0.00,31.0,27.5,00.0,39.4,32.0,34.4,0000.0,0007.38,0004.12,0003.51
2022-07-24 04:01:00,,0831.6,4.99,0.00,30.9,27.4,00.0,39.3,31.8,34.0,0000.0,0008.03,0004.14,0003.52
2022-07-24 04:02:00,,0831.6,5.00,0.00,30.8,27.4,00.0,39.3,31.7,34.5,0000.0,0008.17,0004.17,0003.53
2022-07-24 04:03:00,,0831.5,4.99,0.00,30.7,27.5,00.0,39.3,31.7,34.6,0000.0,0008.28,0004.21,0003.53
2022-07-24 04:04:00,,0831.5,5.00,0.00,30.7,27.6,00.0,39.3,31.8,34.4,0000.0,0008.29,0004.22,0003.54
2022-07-24 04:05:00,,0831.5,5.00,0.00,30.6,27.8,00.0,39.3,31.7,34.3,0000.0,0008.13,0004.17,0003.53
2022-07-24 04:06:00,,0831.6,5.00,0.00,30.6,27.9,00.0,39.2,31.7,34.2,0000.0,0008.00,0004.13,0003.53
2022-07-24 04:07:00,,0831.5,5.01,0.00,30.5,28.0,00.0,39.2,31.8,34.1,0000.0,0007.96,0004.10,0003.53
2022-07-24 04:08:00,,0831.5,5.00,0.00,30.5,28.1,00.0,39.2,31.8,34.3,0000.0,0008.28,0004.10,0003.52
2022-07-24 04:09:00,,0831.5,5.00,0.00,30.5,28.2,00.0,39.2,31.8,34.4,0000.0,0008.16,0004.04,0003.50
2022-07-24 04:10:00,,0831.4,5.00,0.00,30.5,28.3,00.0,39.2,31.9,34.4,0000.0,0008.08,0004.00,0003.47
2022-07-24 04:11:00,,0831.4,5.01,0.00,30.5,28.4,00.0,39.2,31.9,34.4,0000.0,0008.04,0004.01,0003.47
2022-07-24 04:12:00,,0831.3,4.99,0.00,30.5,28.5,00.0,39.2,31.9,34.6,0000.0,0007.46,0003.99,0003.46
2022-07-24 04:13:00,,0831.2,5.01,0.00,30.5,28.6,00.0,39.2,32.0,35.2,0000.0,0007.21,0003.96,0003.45
2022-07-24 04:14:00,,0831.3,5.00,0.00,30.7,28.6,00.0,39.2,32.1,34.6,0000.0,0006.93,0003.89,0003.44
2022-07-24 04:15:00,,0831.3,5.00,0.00,30.9,28.7,00.0,39.2,32.2,34.2,0000.0,0006.96,0003.90,0003.44
2022-07-24 04:16:00,,0831.3,5.00,0.00,31.0,28.7,00.0,39.2,32.1,34.0,0000.0,0007.08,0003.93,0003.44
2022-07-24 04:17:00,,0831.2,5.00,0.00,31.0,28.8,00.0,39.2,32.2,33.9,0000.0,0007.26,0003.97,0003.44
2022-07-24 04:18:00,,0831.2,5.00,0.00,31.0,28.8,00.0,39.2,32.2,33.5,0000.0,0007.28,0003.98,0003.44
2022-07-24 04:19:00,,0831.2,5.00,0.00,31.0,28.9,00.0,39.3,32.2,33.4,0000.0,0006.56,0003.91,0003.43
2022-07-24 04:20:00,,0831.2,5.00,0.00,31.0,28.5,00.0,39.3,32.2,33.2,0000.0,0006.68,0003.93,0003.42
2022-07-24 04:21:00,,0831.1,5.01,0.00,31.0,27.7,00.0,39.2,32.0,33.1,0000.0,0006.63,0003.92,0003.41
2022-07-24 04:22:00,,0831.2,5.00,0.00,30.9,27.1,00.0,39.2,31.9,33.1,0000.0,0006.93,0003.87,0003.39
2022-07-24 04:23:00,,0831.2,4.99,0.00,30.8,27.0,00.0,39.1,31.8,33.3,0000.0,0007.44,0003.86,0003.37
2022-07-24 04:24:00,,0831.2,5.01,0.00,30.7,27.0,00.0,39.2,31.6,32.9,0000.0,0007.39,0003.84,0003.34
2022-07-24 04:25:00,,0831.1,4.99,0.00,30.6,27.2,00.0,39.1,31.6,33.0,0000.0,0007.38,0003.83,0003.31
2022-07-24 04:26:00,,0831.1,5.00,0.00,30.5,27.4,00.0,39.1,31.6,32.4,0000.0,0007.29,0003.77,0003.27
2022-07-24 04:27:00,,0831.1,5.01,0.00,30.5,27.5,00.0,39.1,31.6,32.4,0000.0,0007.17,0003.70,0003.23
2022-07-24 04:28:00,,0831.1,5.00,0.00,30.4,27.7,00.0,39.1,31.7,32.5,0000.0,0006.96,0003.63,0003.19
2022-07-24 04:29:00,,0831.1,4.99,0.00,30.4,27.9,00.0,39.1,31.7,32.6,0000.0,0006.90,0003.59,0003.15
2022-07-24 04:30:00,,0831.1,5.00,0.00,30.4,28.0,00.0,39.0,31.7,32.6,0000.0,0007.09,0003.59,0003.13
2022-07-24 04:31:00,,0831.1,5.00,0.00,30.4,28.1,00.0,39.0,31.7,32.7,0000.0,0007.30,0003.56,0003.11
2022-07-24 04:32:00,,0831.1,5.00,0.00,30.3,28.2,00.0,39.0,31.8,32.6,0000.0,0007.27,0003.53,0003.10
2022-07-24 04:33:00,,0831.1,5.00,0.00,30.3,28.3,00.0,39.0,31.8,32.7,0000.0,0006.99,0003.54,0003.07
2022-07-24 04:34:00,,0831.0,5.00,0.00,30.3,28.4,00.0,39.0,31.8,32.9,0000.0,0006.26,0003.52,0003.05
2022-07-24 04:35:00,,0831.0,5.00,0.00,30.3,28.5,00.0,39.0,31.8,32.9,0000.0,0006.11,0003.48,0003.04
2022-07-24 04:36:00,,0831.1,5.00,0.00,30.3,28.5,00.0,39.0,31.9,33.2,0000.0,0006.25,0003.50,0003.05
2022-07-24 04:37:00,,0831.0,5.00,0.00,30.3,28.6,00.0,39.0,31.9,33.2,0000.0,0006.38,0003.52,0003.07
2022-07-24 04:38:00,,0831.0,5.01,0.00,30.3,28.6,00.0,39.0,31.9,33.3,0000.0,0006.31,0003.53,0003.09
2022-07-24 04:39:00,,0831.0,5.00,0.00,30.3,28.7,00.0,39.0,31.9,33.6,0000.0,0006.48,0003.56,0003.11
2022-07-24 04:40:00,,0831.1,4.99,0.00,30.3,28.7,00.0,39.0,32.0,33.3,0000.0,0006.42,0003.57,0003.13
2022-07-24 04:41:00,,0831.1,5.00,0.00,30.3,28.8,00.0,39.0,32.0,33.4,0000.0,0006.23,0003.57,0003.14
2022-07-24 04:42:00,,0831.1,5.00,0.00,30.4,28.8,00.0,39.0,32.0,33.5,0000.0,0006.39,0003.58,0003.16
2022-07-24 04:43:00,,0831.1,5.01,0.00,30.4,28.8,00.0,39.0,32.0,33.2,0000.0,0006.57,0003.59,0003.17
2022-07-24 04:44:00,,0831.0,5.00,0.00,30.4,28.5,00.0,39.0,32.0,33.6,0000.0,0006.44,0003.58,0003.18
2022-07-24 04:45:00,,0831.0,5.01,0.00,30.3,27.8,00.0,38.9,31.9,33.7,0000.0,0006.42,0003.57,0003.19
2022-07-24 04:46:00,,0831.0,4.99,0.00,30.3,27.5,00.0,38.9,31.8,33.4,0000.0,0006.52,0003.58,0003.19
2022-07-24 04:47:00,,0830.9,5.00,0.00,30.2,27.5,00.0,38.9,31.6,33.9,0000.0,0006.53,0003.57,0003.19
2022-07-24 04:48:00,,0830.9,5.00,0.00,30.1,27.5,00.0,38.9,31.6,34.2,0000.0,0006.39,0003.55,0003.20
2022-07-24 04:49:00,,0830.9,5.00,0.00,30.1,27.7,00.0,38.8,31.6,34.2,0000.0,0006.50,0003.59,0003.23
2022-07-24 04:50:00,,0830.9,4.99,0.00,30.0,27.8,00.0,38.8,31.6,34.0,0000.0,0006.29,0003.57,0003.24
2022-07-24 04:51:00,,0830.9,5.00,0.00,30.0,27.9,00.0,38.8,31.6,34.2,0000.0,0006.21,0003.57,0003.25
2022-07-24 04:52:00,,0830.9,5.00,0.00,30.0,28.0,00.0,38.8,31.6,34.1,0000.0,0006.35,0003.60,0003.26
2022-07-24 04:53:00,,0830.9,4.99,0.00,30.0,28.1,00.0,38.8,31.7,33.8,0000.0,0006.13,0003.64,0003.27
2022-07-24 04:54:00,,0830.9,5.00,0.00,30.0,28.2,00.0,38.8,31.7,34.0,0000.0,0006.06,0003.68,0003.28
2022-07-24 04:55:00,,0830.9,5.00,0.00,30.0,28.3,00.0,38.8,31.7,34.1,0000.0,0006.18,0003.70,0003.30
2022-07-24 04:56:00,,0830.9,5.00,0.00,30.0,28.4,00.0,38.8,31.7,34.1,0000.0,0006.24,0003.73,0003.32
2022-07-24 04:57:00,,0830.9,5.00,0.00,30.0,28.5,00.0,38.8,31.7,34.5,0000.0,0006.22,0003.76,0003.35
2022-07-24 04:58:00,,0830.9,4.98,0.00,30.0,28.5,00.0,38.8,31.7,34.9,0000.0,0006.11,0003.78,0003.37
2022-07-24 04:59:00,,0830.9,5.02,0.00,30.1,28.6,00.0,38.8,31.9,35.0,0000.0,0006.17,0003.80,0003.38
